Bangkok (Don Mueang), Thailand

10:52 PM ICT on August 30, 2016 (GMT +0700)
Bangkok (Don Mueang)

Weather History for 48456 - February, 2014

Change the Weather History Date:

Saturday, February 1, 2014

  Actual Average Record
Temperature  
Mean Temperature 80 °F -  
Max Temperature 90 °F 91 °F - ()
Min Temperature 69 °F 74 °F - ()
Cooling Degree Days 14    
Growing Degree Days 30 (Base 50)    
Moisture  
Dew Point 65 °F    
Average Humidity 64    
Maximum Humidity 94    
Minimum Humidity 34    
Precipitation  
Precipitation 0.00 in 0.03 in - ()
Sea Level Pressure  
Sea Level Pressure 29.89 in    
Wind  
Wind Speed 3 mph ()    
Max Wind Speed 8 mph    
Max Gust Speed -    
Visibility 4.8 miles    
Events      
T = Trace of Precipitation, MM = Missing Value Source: Averaged Metar Reports

Daily Weather History Graph

Daily Weather History Graph

Search for Another Location

Airport or City:

Trip Planner

Search our weather history database for the weather conditions in past years. The results will help you decide how hot, cold, wet, or windy it might be!

Date:

Astronomy

Feb. 01, 2014 Rise Set
Actual Time 6:45 AM ICT 6:17 PM ICT
Civil Twilight 6:22 AM ICT 6:39 PM ICT
Nautical Twilight 5:57 AM ICT 7:05 PM ICT
Astronomical Twilight 5:31 AM ICT 7:30 PM ICT
Moon 7:35 AM ICT (2/1) 7:48 PM ICT (2/1)
Length of Visible Light 12h 16m
Length of Day
11h 32m
Waxing Crescent, 3% of the Moon is Illuminated
Feb 1
Waxing Crescent
Feb 7
First Quarter
Feb 15
Full
Feb 23
Last Quarter
Mar 1
New

Hourly Weather History & Observations

Time (ICT) Temp. Heat Index Dew Point Humidity Pressure Visibility Wind Dir Wind Speed Gust Speed Precip Events Conditions
12:00 AM 75.2 °F - 66.2 °F 73% 29.95 in - South 3.5 mph - N/A   Clear
12:30 AM 75.2 °F - 66.2 °F 73% 29.95 in - Calm Calm - N/A   Clear
1:00 AM 75 °F - 67 °F 68% 29.94 in 6 mi Calm Calm - -   Clear
1:00 AM 75.2 °F - 66.2 °F 73% 29.92 in - Calm Calm - N/A   Clear
1:30 AM 75.2 °F - 66.2 °F 73% 29.92 in - Calm Calm - N/A   Clear
2:00 AM 73.4 °F - 68.0 °F 83% 29.92 in - Calm Calm - N/A   Clear
2:30 AM 73.4 °F - 68.0 °F 83% 29.89 in - Calm Calm - N/A   Clear
3:00 AM 73.4 °F - 68.0 °F 83% 29.89 in - Calm Calm - N/A   Clear
3:30 AM 73.4 °F - 68.0 °F 83% 29.89 in - Calm Calm - N/A   Clear
4:00 AM 73 °F - 68 °F 78% 29.90 in 6 mi Calm Calm - -   Clear
4:00 AM 73.4 °F - 68.0 °F 83% 29.89 in - Calm Calm - N/A   Clear
4:30 AM 71.6 °F - 68.0 °F 88% 29.89 in 5.6 mi Calm Calm - N/A   Unknown
5:00 AM 71.6 °F - 68.0 °F 88% 29.89 in 5.0 mi East 6.9 mph - N/A   Unknown
5:30 AM 69.8 °F - 68.0 °F 94% 29.89 in 3.7 mi East 4.6 mph - N/A   Unknown
6:00 AM 71.6 °F - 68.0 °F 88% 29.89 in 3.1 mi ESE 6.9 mph - N/A   Mist
6:30 AM 69.8 °F - 68.0 °F 94% 29.89 in 3.1 mi ESE 4.6 mph - N/A   Mist
7:00 AM 70 °F - 68 °F 92% 29.92 in 2 mi ESE 4.6 mph - -   Mist
7:00 AM 69.8 °F - 68.0 °F 94% 29.92 in 1.9 mi ESE 4.6 mph - N/A   Mist
7:30 AM 69.8 °F - 68.0 °F 94% 29.92 in 1.9 mi ESE 5.8 mph - N/A   Mostly Cloudy
8:00 AM 71.6 °F - 68.0 °F 88% 29.92 in 2.5 mi ESE 6.9 mph - N/A   Mostly Cloudy
8:30 AM 73.4 °F - 68.0 °F 83% 29.95 in 2.8 mi ESE 4.6 mph - N/A   Mostly Cloudy
9:00 AM 75.2 °F - 68.0 °F 78% 29.95 in 3.1 mi ESE 3.5 mph - N/A   Mist
9:30 AM 77.0 °F - 69.8 °F 78% 29.95 in 3.1 mi East 4.6 mph - N/A   Mist
10:00 AM 80 °F - 70 °F 65% 29.96 in 3 mi SE 3.5 mph - -   Mist
10:00 AM 80.6 °F 83.9 °F 69.8 °F 70% 29.95 in 3.1 mi SE 3.5 mph - N/A   Mist
10:30 AM 82.4 °F 86.3 °F 69.8 °F 66% 29.95 in 3.1 mi SE 3.5 mph - N/A   Mist
11:00 AM 84.2 °F 87.3 °F 68.0 °F 58% 29.95 in 3.7 mi ESE 4.6 mph - N/A   Unknown
11:30 AM 86.0 °F 89.4 °F 68.0 °F 55% 29.92 in 4.3 mi South 3.5 mph - N/A   Mostly Cloudy
12:00 PM 86.0 °F 88.2 °F 66.2 °F 51% 29.92 in 5.0 mi NNE 3.5 mph - N/A   Mostly Cloudy
12:30 PM 87.8 °F 89.4 °F 64.4 °F 46% 29.89 in 5.6 mi ESE 3.5 mph - N/A   Mostly Cloudy
1:00 PM 89 °F - 64 °F 34% 29.89 in 6 mi South 5.8 mph - -   Haze
1:00 PM 87.8 °F 89.4 °F 64.4 °F 46% 29.89 in 5.6 mi South 5.8 mph - N/A   Mostly Cloudy
1:30 PM 87.8 °F 89.4 °F 64.4 °F 46% 29.86 in 5.6 mi North 3.5 mph - N/A   Mostly Cloudy
2:00 PM 87.8 °F 87.6 °F 60.8 °F 40% 29.83 in 5.6 mi ENE 2.3 mph - N/A   Mostly Cloudy
2:30 PM 89.6 °F 90.1 °F 62.6 °F 40% 29.83 in 5.6 mi ESE 5.8 mph - N/A   Mostly Cloudy
3:00 PM 91.4 °F 92.1 °F 62.6 °F 38% 29.83 in 5.6 mi ENE 3.5 mph - N/A   Mostly Cloudy
3:30 PM 89.6 °F 90.1 °F 62.6 °F 40% 29.80 in 5.6 mi West 4.6 mph - N/A   Mostly Cloudy
4:00 PM 88 °F - 64 °F 35% 29.81 in 6 mi SW 5.8 mph - -   Haze
4:00 PM 87.8 °F 89.4 °F 64.4 °F 46% 29.80 in 5.6 mi SW 5.8 mph - N/A   Mostly Cloudy
4:30 PM 87.8 °F 89.4 °F 64.4 °F 46% 29.80 in 5.6 mi South 6.9 mph - N/A   Mostly Cloudy
5:00 PM 87.8 °F 89.4 °F 64.4 °F 46% 29.83 in 5.6 mi SSW 8.1 mph - N/A   Mostly Cloudy
5:30 PM 86.0 °F 86.6 °F 62.6 °F 45% 29.83 in 5.6 mi SSW 6.9 mph - N/A   Unknown
6:00 PM 84.2 °F 85.0 °F 62.6 °F 48% 29.83 in 5.6 mi SSW 8.1 mph - N/A   Unknown
6:30 PM 82.4 °F 82.9 °F 60.8 °F 48% 29.83 in 5.6 mi SSW 8.1 mph - N/A   Unknown
7:00 PM 82 °F - 59 °F 36% 29.85 in 6 mi SW 6.9 mph - -   Haze
7:00 PM 82.4 °F 82.5 °F 59.0 °F 45% 29.83 in 5.6 mi SW 6.9 mph - N/A   Unknown
7:30 PM 80.6 °F 81.1 °F 59.0 °F 48% 29.86 in 5.6 mi SSW 6.9 mph - N/A   Unknown
8:00 PM 80.6 °F 81.5 °F 60.8 °F 51% 29.86 in 5.6 mi SSW 4.6 mph - N/A   Unknown
8:30 PM 80.6 °F 81.1 °F 59.0 °F 48% 29.86 in 5.6 mi SSW 5.8 mph - N/A   Unknown
9:00 PM 80.6 °F 81.5 °F 60.8 °F 51% 29.89 in 5.6 mi SSW 5.8 mph - N/A   Unknown
9:30 PM 78.8 °F - 62.6 °F 57% 29.89 in 5.6 mi South 4.6 mph - N/A   Unknown
10:00 PM 78 °F - 64 °F 53% 29.89 in 6 mi South 3.5 mph - -   Haze
10:00 PM 77.0 °F - 64.4 °F 65% 29.89 in 5.6 mi South 3.5 mph - N/A   Unknown
10:30 PM 77.0 °F - 66.2 °F 69% 29.89 in 5.6 mi South 4.6 mph - N/A   Unknown
11:00 PM 77.0 °F - 66.2 °F 69% 29.89 in 5.6 mi South 3.5 mph - N/A   Unknown
11:30 PM 77.0 °F - 66.2 °F 69% 29.89 in 5.6 mi South 5.8 mph - N/A   Unknown